Location: Bonaustraße
(48.4603°N, 11.9280°E)
Time: 20:41:43
(UTC+01:00)

X-37B - Visible Passes

Search period start: 01 December 2021 00:00
Search period end: 11 December 2021 00:00
Orbit: 330 x 341 km, 45.0° (Epoch: 20 November)

Date Brightness Start Highest point End Pass type
(mag) Time Alt. Az. Time Alt. Az. Time Alt. Az.
07 Dec 2.8 18:16:57 10° SSW 18:18:08 15° S 18:18:08 15° S visible
08 Dec 2.7 18:36:31 10° SW 18:37:44 19° SSW 18:37:44 19° SSW visible
09 Dec 2.6 17:22:23 10° SSW 17:24:14 16° SSE 17:26:05 10° ESE visible
09 Dec 3.4 18:56:35 10° WSW 18:57:18 16° SW 18:57:18 16° SW visible
10 Dec 1.9 17:41:57 10° SW 17:44:25 26° SSE 17:45:37 19° ESE visible
